Tracking 26325 objects as of 30-Nov-2022
HD Live streaming from Space Station
objects crossing your sky now

COSMOS 1408 DEB

Track COSMOS 1408 DEB now!
10-day predictions


NORAD ID: 50540
Int'l Code: 1982-092AHP
Perigee: 412.6 km
Apogee: 549.9 km
Inclination: 82.5 °
Period: 94.1 minutes
Semi major axis: 6852 km
RCS: Unknown
Launch date: September 16, 1982
Source: Commonwealth of Independent States (former USSR) (CIS)
Launch site: PLESETSK MISSILE AND SPACE COMPLEX (PKMTR)

Note: This is SATELLITE DEBRIS
aabbcc
Your satellite tracking list
Your tracking list is empty




NASA's NSSDC Master Catalog

Two Line Element Set (TLE):
1 50540U 82092AHP 22333.35853780  .00110018  00000-0  31516-2 0  9996
2 50540  82.4826 111.7174 0100172 245.0488 114.0320 15.30567536 52043
Source of the keplerian elements: AFSPC